Flag for Israel Weather past 2 weeks in Safed, Israel

Now
79 °F

Passing clouds.


Feels Like: 82 °F
Forecast: 61 / 84 °F
Wind: 6 mph from Southwest

Location: Beirut Airport

Current Time: Jul 31, 2014 at 2:56:54 AM

Latest Report: Jul 31, 2014 at 2:00 AM


Visibility: 5 mi

Pressure: 29.77 "Hg

Humidity: 79%

Dew point: 72 °F

Location of SafedLocation

Historic Weather in Safed — Graph

°F

Safed temperature yesterday

Maximum temperature yesterday: 86 °F (at 12:00 PM)
Minimum temperature yesterday: 77 °F (at 3:00 AM)
Average temperature yesterday: 82 °F

Past Weeks' High & Low Weather Summary

 TemperatureHumidityPressure
High86 °F (Jul 16, 1:00 PM)84% (Jul 23, 11:00 PM)29.92 "Hg (Jul 23, 11:00 PM)
Low75 °F (Jul 18, 6:00 AM)48% (Jul 26, 8:00 AM)29.71 "Hg (Jul 21, 4:00 AM)
Average81 °F66%29.81 "Hg
* Reported Jul 16 1:00 AM — Jul 31 1:00 AM, Safed, Weather by CustomWeather, © 2014

Note: Actual official high and low records may vary slightly from our data, if they occured in-between our weather recording intervals... More about our weather records

Advertising

Safed weather history for previous 24 hours

 ConditionsComfort  
Time TempWeatherWind HumidityBarometerVisibility
1:00 AM
Jul 31
79 °FPassing clouds.6 mph79%29.77 "Hg5 mi
12:00 AM81 °FPassing clouds.5 mph74%29.80 "Hg5 mi
11:00 PM
Jul 30
81 °FPassing clouds.7 mph74%29.77 "Hg5 mi
10:00 PM81 °FPassing clouds.6 mph74%29.77 "HgN/A
9:00 PM81 °FPassing clouds.7 mph74%29.77 "Hg4 mi
8:00 PM81 °FPassing clouds.7 mph74%29.77 "Hg5 mi
7:00 PM82 °FPassing clouds.7 mph70%29.77 "Hg5 mi
6:00 PM84 °FPassing clouds.8 mph66%29.77 "Hg5 mi
5:00 PM86 °FPassing clouds.10 mph66%29.77 "Hg5 mi
4:00 PM86 °FPassing clouds.10 mph62%29.77 "Hg5 mi
3:00 PM86 °FPassing clouds.10 mph62%29.80 "Hg5 mi
2:00 PM86 °FPassing clouds.13 mph66%29.80 "HgN/A
1:00 PM86 °FPassing clouds.13 mph62%29.80 "HgN/A
12:00 PM86 °FPassing clouds.13 mph66%29.80 "HgN/A
11:00 AM84 °FWarm.14 mph70%29.80 "HgN/A
10:00 AM84 °FPassing clouds.15 mph66%29.77 "HgN/A
9:00 AM84 °FPassing clouds.15 mph66%29.77 "HgN/A
8:00 AM82 °FPassing clouds.12 mph70%29.77 "HgN/A
7:00 AM79 °FPassing clouds.9 mph70%29.77 "Hg5 mi
6:00 AM79 °FPassing clouds.6 mph61%29.77 "Hg4 mi
5:00 AM79 °FPassing clouds.7 mph70%29.74 "Hg5 mi
4:00 AM77 °FPassing clouds.8 mph74%29.74 "Hg5 mi
3:00 AM77 °FPassing clouds.6 mph69%29.77 "Hg5 mi
2:00 AM79 °FPassing clouds.3 mph70%29.77 "Hg5 mi
Weather by CustomWeather, © 2014

See weather overviewHow to use our weather pages